Regional Weather Roundup
Issued by NWS

Home | Current Version | Previous Version | Text Only | Print | Product List | Glossary Off
Versions: 1 2 3 4 5 6 7 8 9 10 11 12 13 14 15 16 17 18 19 20 21 22 23 24 25 26 27 28 29 30 31 32 33 34 35 36 37 38 39 40 41 42 43 44 45 46 47 48 49 50

000
ASUS43 KFSD 190702
RWRSD

WEATHER ROUNDUP FOR SOUTH DAKOTA
NATIONAL WEATHER SERVICE SIOUX FALLS SD
200 AM CDT THU APR 19 2018

NOTE: "FAIR" INDICATES FEW OR NO CLOUDS BELOW 12,000 FEET WITH NO
SIGNIFICANT WEATHER AND/OR OBSTRUCTIONS TO VISIBILITY.


SDZ001>005-009-010-012>017-190800-
NORTHWEST AND NORTH CENTRAL SOUTH DAKOTA

CITY           SKY/WX    TMP DP  RH WIND       PRES   REMARKS
BUFFALO          N/A     36  29  75 NE3       30.23R
FAITH            N/A     35  30  82 SE10      30.31R WCI  27
MOBRIDGE       CLEAR     27  23  85 CALM      30.31R
$$

SDZ012>016-024>037-041>051-057-063-072>074-190800-
SOUTHWEST AND SOUTH CENTRAL SOUTH DAKOTA

CITY           SKY/WX    TMP DP  RH WIND       PRES   REMARKS
RAPID CTY ARPT CLEAR     33  31  92 CALM      30.30S
PIERRE         CLEAR     28  25  88 W5        30.33R WCI  23
CUSTER         CLEAR     27  18  69 CALM      30.27R
ELLSWORTH AFB  CLEAR     37  37  99 S5        30.29S
PHILIP         CLEAR     32  31  96 CALM      30.32R
PINE RIDGE     CLEAR     33  32  96 E5        30.29F WCI  29
SPEARFISH      FAIR      32  25  74 S6        30.28S WCI  26
WINNER         MIX PCPN  31  27  85 W5        30.33S WCI  26
$$

SDZ004>011-016>023-039-040-190800-
NORTHEAST SOUTH DAKOTA

CITY           SKY/WX    TMP DP  RH WIND       PRES   REMARKS
ABERDEEN       CLEAR     28  27  96 W3        30.34R
WATERTOWN      CLOUDY    30  28  92 NW6       30.31R WCI  24
BROOKINGS      CLOUDY    32  28  85 CALM      30.31R
SISSETON         N/A     35  29  78 W7        30.31R WCI  29
$$

SDZ017-020-022-023-036>040-048>070-190800-
SOUTHEAST SOUTH DAKOTA

CITY           SKY/WX    TMP DP  RH WIND       PRES   REMARKS
SIOUX FALLS    CLEAR     32  25  75 N9        30.30R WCI  24
HURON          CLEAR     29  27  92 NW3       30.33R
CHAMBERLAIN    CLEAR     32  31  96 CALM      30.34R
MITCHELL       CLEAR     32  28  85 NW5       30.34R WCI  27
YANKTON        CLEAR     32  30  92 NW8       30.31R WCI  25
$$

ABBREVIATIONS USED IN REMARKS
   TC - TEMPERATURE IN CELSIUS
  WCI - WIND CHILL INDEX
   HX - HEAT INDEX
  VSB - VISIBILITY





USA.gov is the U.S. government's official web portal to all federal, state and local government web resources and services.